This is the latest recevied weather packets stored in our database for station/object ANJALA. If no packets are shown the sender has not sent any weather packets the latest 10 day(s).
| Time | Temp. | Humidity | Pressure | Rain* | Wind** | Luminosity | Snow |
|---|---|---|---|---|---|---|---|
| 1788392679 | 12.78° C | 99% | - | 0 mm | - | - | - |
| 1788391477 | 13.33° C | 99% | - | 0 mm | - | - | - |
| 1788390277 | 13.33° C | 99% | - | 0 mm | - | - | - |
| 1788389078 | 12.78° C | 99% | - | 0 mm | - | - | - |
| 1788387876 | 12.78° C | 99% | - | 0 mm | - | - | - |
| 1788386677 | 12.78° C | 98% | - | 0 mm | - | - | - |
| 1788385476 | 12.22° C | 98% | - | 0 mm | - | - | - |
| 1788384275 | 11.67° C | 99% | - | 0 mm | - | - | - |
| 1788383075 | 11.67° C | 98% | - | 0 mm | - | - | - |
| 1788380675 | 11.11° C | 97% | - | 0 mm | - | - | - |
| 1788379474 | 11.67° C | 98% | - | 0 mm | - | - | - |
| 1788378274 | 11.67° C | 96% | - | 0 mm | - | - | - |
| 1788377075 | 11.67° C | 96% | - | 0 mm | - | - | - |
| 1788375876 | 11.67° C | 96% | - | 0 mm | - | - | - |
| 1788374676 | 11.67° C | 96% | - | 0 mm | - | - | - |
| 1788373473 | 12.22° C | 95% | - | 0 mm | - | - | - |
| 1788369664 | 13.33° C | 89% | - | 0 mm | - | - | - |
| 1788368675 | 13.89° C | 87% | - | 0 mm | - | - | - |
| 1788367474 | 16.11° C | 80% | - | 0 mm | - | - | - |
| 1788365073 | 17.78° C | 69% | - | 0 mm | - | - | - |
| 1788363874 | 18.33° C | 64% | - | 0 mm | - | - | - |
| 1788362673 | 18.33° C | 60% | - | 0 mm | - | - | - |
| 1788357875 | 18.33° C | 56% | - | 0 mm | - | - | - |
| 1788356672 | 18.33° C | 57% | - | 0 mm | - | - | - |
| 1788355473 | 18.33° C | 54% | - | 0 mm | - | - | - |
* Rain latest hour (hover to see other rain measurements)
** Current wind speed in m/s (hover to see current wind gust speed)